SENTINEL-6 (46984 NORAD) Tracking and Keplerian Element Data

This shows tracking and keplerian element data for the satellite.

Feedback or suggestion? Click here.




ElementValue
Catalog46984
NameSENTINEL-6
Epoch Orbit769
Epoch Day20.7163174
Epoch Year2021
RAAN274.0081
Inclination66.0434
Eccentricity0.0007771
Argument of Perigee265.7599
Mean Anonmoly94.2541
Mean Motion12.80930302
Decay Rate-6.1E-07
L11 46984U 20086A 21020.71631740 -.00000061 00000-0 00000-0 0 9999
L22 46984 66.0434 274.0081 0007771 265.7599 94.2541 12.80930302 7698

Live tracking and technical data element details for SENTINEL-6 (NORAD 46984). SENTINEL-6 can be tracked NOW for your location showing map with azimuth and elevation plus other details from your city location.

Track the satellite on the map from your city or location and see movement details for azimuth, elevation, latitude, longitude, range, height, and movement on the map or in text.







IsCatalogInMostPopularTable: catalog: 46984, numindb: 67
Update: records affected: 1



GetName: 46984 SENTINEL-6

Hit Count: updated at: Fri, 22 Jan 2021 17:01:28 GMT